Tracking 29528 objects as of 12-Sep-2024
HD Live streaming from Space Station
objects crossing your sky now

ONEWEB-0582

Track ONEWEB-0582 now!
10-day predictions
ONEWEB-0582 is classified as:


NORAD ID: 54649
Int'l Code: 2022-166H
Perigee: 1,183.7 km
Apogee: 1,186.1 km
Inclination: 87.9 °
Period: 108.9 minutes
Semi major axis: 7555 km
RCS: Unknown
Launch date: December 8, 2022
Source: United Kingdom (UK)
Launch site: AIR FORCE EASTERN TEST RANGE (AFETR)
Your satellite tracking list
Your tracking list is empty




NASA's NSSDC Master Catalog

Two Line Element Set (TLE):
1 54649U 22166H   24255.86230491 -.00000023  00000-0 -87182-4 0  9993
2 54649  87.9356  12.0995 0001541  78.4263 281.7044 13.21823806 86537
Source of the keplerian elements: AFSPC